sat.trackr.live / text

‹ back to catalog

KUIPER-00133

NORAD 65764 · 2025-217C

PAYLOAD ACTIVE UNKNOWN

§ Identity

Operator
Country
US
Launch date
2025-09-25
Launch site
AFETR
Launch vehicle
Mass (kg)
RCS (m²)

External: N2YO · Heavens-Above · Gunter

§ Orbital elements

Epoch: 2026-09-20T07:51:14.843232Z

Period
97.30 min
Inclination
51.9039°
Eccentricity
0.0000525
Mean motion
14.79938947 rev/d
Perigee alt
629.1 km
Apogee alt
629.9 km
Semi-major
7,007.7 km
B*
2.5216e-4
RAAN
272.5005°
Arg perigee
61.5807°
Mean anomaly
298.5209°
Rev number
5,356

§ Raw data

KUIPER-001331 65764U 25217C   26263.32725513  .00001702  00000+0  25216-3 0  99902 65764  51.9039 272.5005 0000525  61.5807 298.5209 14.79938947 53562

JSON: /api/v1/satellites/65764 · /tle

For live sub-satellite position, see the globe view (requires WebGL).

§ Visibility from observer

Set your observer location to see the next 7 days of passes ≥ 10°. The values pass through the URL so the page stays shareable.

No JS? Fill the form by hand. The geolocation button needs JavaScript.